Home   Weather   San Luis Obispo   Past weeks
Flag for USA

Past Weather in San Luis Obispo, California, USA — Yesterday and Last 2 Weeks

Now
54 °F

Partly sunny.


Feels Like: 50 °F
Forecast: 67 / 44 °F
Wind: 14 mph from Northwest

Location: San Luis Obispo County-Mc Chesney Field

Current Time: Mar 23, 2019 at 8:11:12 pm

Latest Report: Mar 23, 2019 at 6:59 pm


Visibility: 10 mi

Pressure: 30.18 "Hg

Humidity: 77%

Dew Point: 47 °F

Location of San Luis ObispoLocation

Past Weather in San Luis Obispo — Graph

°F

San Luis Obispo Temperature Yesterday

Maximum temperature yesterday: 64 °F (at 1:56 pm)
Minimum temperature yesterday: 41 °F (at 5:56 am)
Average temperature yesterday: 52 °F

High & Low Weather Summary for the Past Weeks

 TemperatureHumidityPressure
High79 °F (Mar 17, 1:56 pm)100% (Mar 10, 7:13 am)30.23 "Hg (Mar 10, 7:13 am)
Low36 °F (Mar 9, 5:56 am)19% (Mar 15, 12:56 pm)29.83 "Hg (Mar 19, 3:56 pm)
Average53 °F70%30.05 "Hg
* Reported Mar 8 5:04 pm — Mar 23 6:59 pm, San Luis Obispo. Weather by CustomWeather, © 2019

Note: Actual official high and low records may vary slightly from our data, if they occured in-between our weather recording intervals... More about our weather records

Advertising

San Luis Obispo Weather History for the Previous 24 Hours

Scroll right to see more
 ConditionsComfort  
Time TempWeatherWind HumidityBarometerVisibility
6:59 pm
Sat, Mar 23
54 °FPartly sunny.14 mph77%30.18 "Hg10 mi
5:56 pm57 °FSunny.16 mph69%30.16 "Hg10 mi
4:56 pm59 °FPassing clouds.21 mph64%30.16 "Hg10 mi
3:56 pm62 °FPassing clouds.17 mph65%30.15 "Hg10 mi
2:56 pm62 °FBroken clouds.15 mph70%30.15 "Hg10 mi
1:56 pm62 °FPartly sunny.9 mph73%30.16 "Hg10 mi
1:11 pm60 °FLight rain. Partly sunny.13 mph78%30.17 "Hg10 mi
12:56 pm61 °FBroken clouds.9 mph70%30.17 "Hg10 mi
12:13 pm58 °FMore clouds than sun.5 mph84%30.18 "Hg10 mi
11:37 am59 °FBroken clouds.No wind78%30.18 "Hg10 mi
10:56 am55 °FLight rain. Cloudy.5 mph87%30.18 "Hg7 mi
9:56 am53 °FMore clouds than sun.3 mph89%30.18 "Hg10 mi
9:27 am52 °FLight rain. Fog.No wind93%30.17 "Hg5 mi
9:20 am52 °FLight rain. Fog.3 mph93%30.17 "Hg4 mi
8:56 am52 °FLight rain. Fog.No wind93%30.16 "Hg4 mi
8:28 am52 °FLight rain. Fog.No wind89%30.16 "Hg3 mi
7:56 am52 °FLight rain. Fog.No wind86%30.15 "Hg4 mi
6:56 am52 °FMostly cloudy.No wind86%30.13 "Hg10 mi
6:10 am52 °FMostly cloudy.No wind83%30.13 "Hg10 mi
5:56 am52 °FLight rain. Overcast.3 mph83%30.13 "Hg10 mi
4:56 am51 °FOvercast.3 mph86%30.13 "Hg10 mi
3:56 am51 °FMostly cloudy.6 mph86%30.14 "Hg10 mi
3:17 am50 °FMostly cloudy.3 mph89%30.16 "Hg10 mi
2:56 am50 °FOvercast.3 mph89%30.16 "Hg10 mi
1:56 am51 °FPassing clouds.6 mph86%30.16 "Hg10 mi
12:56 am53 °FOvercast.No wind83%30.17 "Hg10 mi
11:56 pm
Fri, Mar 22
53 °FOvercast.3 mph83%30.18 "Hg10 mi
10:56 pm53 °FOvercast.3 mph83%30.19 "Hg10 mi
9:56 pm53 °FOvercast.3 mph83%30.19 "Hg10 mi
9:16 pm53 °FMostly cloudy.No wind83%30.18 "Hg10 mi
8:56 pm53 °FPassing clouds.3 mph80%30.18 "Hg10 mi
Weather by CustomWeather, © 2019

See weather overview